Tracking 17138 objects as of 2-July-2015
HD Live streaming from Space Station

BEESAT

Track BEESAT now!
10-day predictions
BEESAT is classified as:


NORAD ID: 35933
Int'l Code: 2009-051C
Perigee: 711.1 km
Apogee: 717.9 km
Inclination: 98.4 °
Period: 98.9 minutes
Semi major axis: 7085 km
RCS: 0.033 m2 (small)
Launch date: September 23, 2009
Source: Germany (GER)

BEESAT is a a cubesat satellite built by student teams to test new attitude control systems.
Your satellite tracking list
Your tracking list is empty





NASA's NSSDC Master Catalog

Two Line Element Set (TLE):
1 35933U 09051C   15183.55959148  .00000286  00000-0  76384-4 0  9990
2 35933 098.4115 303.3108 0004817 313.7460 046.3338 14.55627175306295

Source of the keplerian elements: AFSPC

N2YO: 275